FW2272 Weather Reports


Display with metric or nautical units.
time (UTC)temp
F
wind
direction
speed
MPH
gust
MPH
rain 1hr
in
rain 24hr
in
rain mn
in
humidity
%
barometer
mb
20260506035718 77 126 7.0 0.0 0.00 0.00 0.00 88 1010.8
20260506035215 77 142 5.0 0.0 0.00 0.00 0.00 88 1010.8
20260506034716 77 171 4.0 0.0 0.00 0.00 0.00 88 1010.5
20260506034216 77 173 3.0 0.0 0.00 0.00 0.00 88 1010.5
20260506033715 77 162 4.0 0.0 0.00 0.00 0.00 87 1010.5
20260506033217 77 147 6.0 0.0 0.00 0.00 0.00 87 1010.5
20260506032714 78 103 7.0 0.0 0.00 0.00 0.00 87 1010.5
20260506032213 78 178 5.0 0.0 0.00 0.00 0.00 86 1010.2
20260506031715 78 120 4.0 0.0 0.00 0.00 0.00 86 1010.2
20260506031214 78 188 3.0 0.0 0.00 0.00 0.00 86 1010.2
20260506030713 78 159 2.0 0.0 0.00 0.00 0.00 85 1009.8
20260506030216 78 171 4.0 0.0 0.00 0.00 0.00 85 1009.8
20260506025714 78 121 3.0 0.0 0.00 0.00 0.00 85 1009.8
20260506025213 79 207 4.0 0.0 0.00 0.00 0.00 84 1009.8
20260506024713 79 64 5.0 0.0 0.00 0.00 0.00 84 1009.8
20260506024214 79 128 4.0 0.0 0.00 0.00 0.00 84 1009.8
20260506023714 79 193 4.0 0.0 0.00 0.00 0.00 83 1009.5
20260506023216 79 133 4.0 0.0 0.00 0.00 0.00 83 1009.5
20260506022713 79 194 4.0 0.0 0.00 0.00 0.00 82 1009.5
20260506022214 79 125 4.0 0.0 0.00 0.00 0.00 82 1009.5
20260506021713 79 170 3.0 0.0 0.00 0.00 0.00 82 1009.1
20260506021212 79 188 3.0 0.0 0.00 0.00 0.00 82 1009.1
20260506020713 79 148 3.0 0.0 0.00 0.00 0.00 82 1009.5
20260506020213 79 162 4.0 0.0 0.00 0.00 0.00 82 1009.1
20260506015710 79 219 3.0 0.0 0.00 0.00 0.00 82 1009.1
20260506015210 79 197 3.0 0.0 0.00 0.00 0.00 82 1009.1
20260506014715 79 179 4.0 0.0 0.00 0.00 0.00 82 1008.8
20260506014212 79 199 3.0 0.0 0.00 0.00 0.00 82 1008.8
20260506013711 80 163 3.0 0.0 0.00 0.00 0.00 82 1008.8
20260506013213 80 141 3.0 0.0 0.00 0.00 0.00 82 1008.8
20260506012709 80 143 2.0 0.0 0.00 0.00 0.00 82 1008.8
20260506012214 80 112 2.0 0.0 0.00 0.00 0.00 81 1008.8
20260506011711 80 150 0.0 0.0 0.00 0.00 0.00 81 1008.8
20260506011209 81 169 0.0 0.0 0.00 0.00 0.00 81 1008.8
20260506010714 81 175 0.0 0.0 0.00 0.00 0.00 79 1008.8
20260506010212 81 187 0.0 0.0 0.00 0.00 0.00 79 1008.5
20260506005713 81 187 1.0 0.0 0.00 0.00 0.00 78 1008.5
20260506005210 82 178 2.0 0.0 0.00 0.00 0.00 77 1008.5
20260506004717 82 207 2.0 0.0 0.00 0.00 0.00 77 1008.5
20260506004214 82 175 0.0 0.0 0.00 0.00 0.00 77 1008.5
20260506003710 82 201 2.0 0.0 0.00 0.00 0.00 77 1008.5
20260506003210 82 202 2.0 0.0 0.00 0.00 0.00 77 1008.5
20260506002712 82 182 0.0 0.0 0.00 0.00 0.00 77 1008.5
20260506002215 83 186 0.0 0.0 0.00 0.00 0.00 76 1008.5
20260506001711 83 189 2.0 0.0 0.00 0.00 0.00 75 1008.5
20260506001213 83 182 0.0 0.0 0.00 0.00 0.00 74 1008.5
20260506000711 83 197 0.0 0.0 0.00 0.00 0.00 73 1008.1
20260506000312 83 187 2.0 0.0 0.00 0.00 0.00 73 1008.5
20260505235213 84 190 1.0 0.0 0.00 0.00 0.00 72 1008.5
20260505234713 84 197 0.0 0.0 0.00 0.00 0.00 71 1008.5
20260505234212 84 199 0.0 0.0 0.00 0.00 0.00 71 1008.5
20260505233712 84 186 2.0 0.0 0.00 0.00 0.00 70 1008.5
20260505233213 84 159 3.0 0.0 0.00 0.00 0.00 69 1008.5
20260505232712 84 266 7.0 0.0 0.00 0.00 0.00 70 1008.5
20260505232211 85 133 4.0 0.0 0.00 0.00 0.00 69 1008.5
20260505231710 85 176 4.0 0.0 0.00 0.00 0.00 68 1008.5
20260505231211 85 177 1.0 0.0 0.00 0.00 0.00 70 1008.5
20260505230710 85 152 3.0 0.0 0.00 0.00 0.00 68 1008.1
20260505230212 85 254 4.0 0.0 0.00 0.00 0.00 68 1008.1
20260505225714 85 96 4.0 0.0 0.00 0.00 0.00 68 1008.1
20260505225211 85 104 4.0 0.0 0.00 0.00 0.00 68 1008.5
20260505224713 85 179 3.0 0.0 0.00 0.00 0.00 69 1008.5
20260505224214 85 135 4.0 0.0 0.00 0.00 0.00 69 1008.1
20260505223713 85 241 3.0 0.0 0.00 0.00 0.00 68 1008.5
20260505223212 85 309 3.0 0.0 0.00 0.00 0.00 68 1008.5
20260505222711 85 126 5.0 0.0 0.00 0.00 0.00 68 1008.5
20260505222212 85 126 5.0 0.0 0.00 0.00 0.00 68 1008.5
20260505221712 85 229 4.0 0.0 0.00 0.00 0.00 68 1008.5
20260505221211 85 92 6.0 0.0 0.00 0.00 0.00 68 1008.5
20260505220712 85 113 6.0 0.0 0.00 0.00 0.00 67 1008.5
20260505220211 85 134 3.0 0.0 0.00 0.00 0.00 68 1008.5
20260505215713 85 114 5.0 0.0 0.00 0.00 0.00 69 1008.5
20260505215210 85 265 5.0 0.0 0.00 0.00 0.00 67 1008.5
20260505214711 85 325 6.0 0.0 0.00 0.00 0.00 67 1008.8
20260505214211 85 126 6.0 0.0 0.00 0.00 0.00 68 1008.8
20260505213713 85 134 7.0 0.0 0.00 0.00 0.00 68 1008.8
20260505213214 85 160 5.0 0.0 0.00 0.00 0.00 67 1008.8
20260505212713 86 154 7.0 0.0 0.00 0.00 0.00 66 1008.8
20260505212214 86 56 8.0 0.0 0.00 0.00 0.00 67 1008.8
20260505211712 86 68 6.0 0.0 0.00 0.00 0.00 68 1009.1
20260505211211 86 256 4.0 0.0 0.00 0.00 0.00 68 1009.1
20260505210711 86 208 6.0 0.0 0.00 0.00 0.00 67 1009.1
20260505210211 86 182 4.0 0.0 0.00 0.00 0.00 68 1009.1
20260505205712 86 259 4.0 0.0 0.00 0.00 0.00 69 1009.5
20260505205209 85 101 3.0 0.0 0.00 0.00 0.00 69 1009.5
20260505204712 85 137 6.0 0.0 0.00 0.00 0.00 69 1009.5
20260505204209 85 207 6.0 0.0 0.00 0.00 0.00 70 1009.5
20260505203712 84 110 8.0 0.0 0.00 0.00 0.00 70 1009.5
20260505203214 84 129 5.0 0.0 0.00 0.00 0.00 71 1009.8
20260505202711 84 170 7.0 0.0 0.00 0.00 0.00 70 1009.8
20260505202211 85 112 3.0 0.0 0.00 0.00 0.00 71 1009.8
20260505201710 85 180 5.0 0.0 0.00 0.00 0.00 69 1009.8
20260505201212 85 102 4.0 0.0 0.00 0.00 0.00 70 1009.8
20260505200710 85 255 5.0 0.0 0.00 0.00 0.00 70 1010.2
20260505200213 85 122 6.0 0.0 0.00 0.00 0.00 70 1009.8
20260505195714 84 156 6.0 0.0 0.00 0.00 0.00 70 1010.2
20260505195214 84 133 6.0 0.0 0.00 0.00 0.00 73 1010.2
20260505194712 83 333 7.0 0.0 0.00 0.00 0.00 71 1010.2
20260505194215 83 203 5.0 0.0 0.00 0.00 0.00 72 1010.5
20260505193710 83 45 4.0 0.0 0.00 0.00 0.00 73 1010.5
20260505193213 83 82 4.0 0.0 0.00 0.00 0.00 71 1010.5
20260505192713 83 338 5.0 0.0 0.00 0.00 0.00 72 1010.5
20260505192212 83 216 4.0 0.0 0.00 0.00 0.00 71 1010.5
20260505191710 83 126 3.0 0.0 0.00 0.00 0.00 71 1010.5
20260505191213 83 149 4.0 0.0 0.00 0.00 0.00 72 1010.5
20260505190711 83 340 5.0 0.0 0.00 0.00 0.00 74 1010.5
20260505190215 82 164 6.0 0.0 0.00 0.00 0.00 74 1010.5
20260505185714 82 120 4.0 0.0 0.00 0.00 0.00 74 1010.8
20260505185215 82 133 3.0 0.0 0.00 0.00 0.00 73 1010.8
20260505184711 81 274 6.0 0.0 0.00 0.00 0.00 74 1011.2
20260505184210 81 147 4.0 0.0 0.00 0.00 0.00 75 1011.2
20260505183714 81 160 5.0 0.0 0.00 0.00 0.00 77 1011.2
20260505183211 80 88 3.0 0.0 0.00 0.00 0.00 77 1011.2
20260505182712 80 122 4.0 0.0 0.00 0.00 0.00 77 1011.2
20260505182213 80 115 3.0 0.0 0.00 0.00 0.00 77 1011.2
20260505181713 80 173 4.0 0.0 0.00 0.00 0.00 77 1011.5
20260505181214 80 131 3.0 0.0 0.00 0.00 0.00 78 1011.2
20260505180711 80 235 3.0 0.0 0.00 0.00 0.00 78 1011.2
20260505180215 79 249 4.0 0.0 0.00 0.00 0.00 80 1011.5
20260505175716 79 203 6.0 0.0 0.00 0.00 0.00 80 1011.5
20260505175212 78 185 4.0 0.0 0.00 0.00 0.00 81 1011.5
20260505174709 78 191 2.0 0.0 0.00 0.00 0.00 81 1011.5
20260505174210 78 221 3.0 0.0 0.00 0.00 0.00 83 1011.5
20260505173712 77 166 4.0 0.0 0.00 0.00 0.00 82 1011.5
20260505173211 77 189 3.0 0.0 0.00 0.00 0.00 84 1011.5
20260505172711 77 207 3.0 0.0 0.00 0.00 0.00 84 1011.5
20260505172236 76 201 3.0 0.0 0.00 0.00 0.00 85 1011.5
20260505171734 76 153 5.0 0.0 0.00 0.00 0.00 86 1011.5
20260505171234 76 122 3.0 0.0 0.00 0.00 0.00 87 1011.5
20260505170735 75 123 3.0 0.0 0.00 0.00 0.00 87 1011.5
20260505170234 75 200 3.0 0.0 0.00 0.00 0.00 88 1011.5
20260505165734 75 133 6.0 0.0 0.00 0.00 0.00 88 1011.5
20260505165235 74 307 5.0 0.0 0.00 0.00 0.00 89 1011.5
20260505164734 74 214 5.0 0.0 0.00 0.00 0.00 91 1011.5
20260505164234 74 244 4.0 0.0 0.00 0.00 0.00 91 1011.5
20260505163735 73 202 4.0 0.0 0.00 0.00 0.00 92 1011.5
20260505163234 73 194 2.0 0.0 0.00 0.00 0.00 93 1011.5
20260505162746 72 190 4.0 0.0 0.00 0.00 0.00 93 1011.5
20260505162234 72 203 4.0 0.0 0.00 0.00 0.00 94 1011.5
20260505161735 72 111 3.0 0.0 0.00 0.00 0.00 94 1011.5
20260505161232 72 171 3.0 0.0 0.00 0.00 0.00 94 1011.5
20260505160733 72 226 3.0 0.0 0.00 0.00 0.00 95 1011.9
20260505160232 72 157 2.0 0.0 0.00 0.00 0.00 95 1011.5
20260505153234 71 213 2.0 0.0 0.00 0.00 0.00 96 1011.5
20260505152733 71 216 2.0 0.0 0.00 0.00 0.00 96 1011.5
20260505152233 71 238 3.0 0.0 0.00 0.00 0.00 96 1011.5
20260505151732 71 251 3.0 0.0 0.00 0.00 0.00 96 1011.5
20260505151232 70 184 0.0 0.0 0.00 0.00 0.00 96 1011.5
20260505150735 70 230 3.0 0.0 0.00 0.00 0.00 96 1011.5
20260505150232 70 274 2.0 0.0 0.00 0.00 0.00 96 1011.5
20260505140231 69 210 0.0 0.0 0.00 0.00 0.00 96 1011.5
20260505124728 68 90 3.0 0.0 0.00 0.00 0.00 95 1011.2
20260505124229 69 143 2.0 0.0 0.00 0.00 0.00 95 1011.2
20260505123729 68 199 4.0 0.0 0.00 0.00 0.00 94 1011.2
20260505123229 69 194 5.0 0.0 0.00 0.00 0.00 94 1010.8
20260505122728 68 110 5.0 0.0 0.00 0.00 0.00 94 1010.8
20260505122228 69 221 4.0 0.0 0.00 0.00 0.00 94 1010.8
20260505121730 69 188 4.0 0.0 0.00 0.00 0.00 94 1010.5
20260505121227 68 44 7.0 0.0 0.00 0.00 0.00 94 1010.5
20260505120727 69 109 3.0 0.0 0.00 0.00 0.00 94 1010.5
20260505120226 68 300 7.0 0.0 0.00 0.00 0.00 94 1010.5
20260505115730 69 232 3.0 0.0 0.00 0.00 0.00 94 1010.5
20260505115226 69 344 4.0 0.0 0.00 0.00 0.00 94 1010.5
20260505114727 69 127 4.0 0.0 0.00 0.00 0.00 94 1010.5
20260505114228 69 105 4.0 0.0 0.00 0.00 0.00 94 1010.2
20260505113727 69 235 3.0 0.0 0.00 0.00 0.00 94 1010.2
20260505113226 69 214 3.0 0.0 0.00 0.00 0.00 93 1010.5
20260505112726 69 172 3.0 0.0 0.00 0.00 0.00 94 1010.5
20260505112226 69 186 4.0 0.0 0.00 0.00 0.00 93 1010.2
20260505111728 69 108 4.0 0.0 0.00 0.00 0.00 93 1010.2
20260505111226 69 316 4.0 0.0 0.00 0.00 0.00 93 1010.5
20260505110726 69 55 4.0 0.0 0.00 0.00 0.00 93 1010.5
20260505110225 69 120 3.0 0.0 0.00 0.00 0.00 93 1010.5
20260505101725 69 141 3.0 0.0 0.00 0.00 0.00 93 1010.5
20260505101223 69 140 3.0 0.0 0.00 0.00 0.00 93 1010.5
20260505100727 69 296 4.0 0.0 0.00 0.00 0.00 93 1010.5
20260505100226 69 118 3.0 0.0 0.00 0.00 0.00 93 1010.5
20260505095726 69 288 4.0 0.0 0.00 0.00 0.00 93 1010.5
20260505095222 69 138 4.0 0.0 0.00 0.00 0.00 93 1010.5
20260505094724 69 327 5.0 0.0 0.00 0.00 0.00 93 1010.5
20260505094226 69 137 4.0 0.0 0.00 0.00 0.00 93 1010.5
20260505093724 69 190 4.0 0.0 0.00 0.00 0.00 93 1010.8
20260505093223 69 215 5.0 0.0 0.00 0.00 0.00 92 1010.8
20260505092723 69 173 5.0 0.0 0.00 0.00 0.00 92 1010.8
20260505092223 69 214 3.0 0.0 0.00 0.00 0.00 92 1010.8
20260505091726 69 106 3.0 0.0 0.00 0.00 0.00 92 1010.8
20260505091223 69 142 3.0 0.0 0.00 0.00 0.00 92 1010.8
20260505090723 69 129 5.0 0.0 0.00 0.00 0.00 92 1010.8
20260505090224 69 137 3.0 0.0 0.00 0.00 0.00 92 1010.8
20260505085722 69 185 4.0 0.0 0.00 0.00 0.00 92 1010.5
20260505085221 69 304 5.0 0.0 0.00 0.00 0.00 92 1010.8
20260505084721 69 169 3.0 0.0 0.00 0.00 0.00 92 1010.8
20260505084221 69 123 4.0 0.0 0.00 0.00 0.00 92 1010.8
20260505083722 69 183 3.0 0.0 0.00 0.00 0.00 92 1010.8
20260505083223 69 280 4.0 0.0 0.00 0.00 0.00 92 1010.8
20260505082721 69 199 6.0 0.0 0.00 0.00 0.00 92 1010.8
20260505082222 69 40 6.0 0.0 0.00 0.00 0.00 92 1011.2
20260505081722 69 95 7.0 0.0 0.00 0.00 0.00 91 1011.2
20260505081223 69 105 5.0 0.0 0.00 0.00 0.00 91 1011.2
20260505080722 69 108 4.0 0.0 0.00 0.00 0.00 91 1011.2
20260505080223 69 100 4.0 0.0 0.00 0.00 0.00 91 1011.2
20260505075722 69 178 5.0 0.0 0.00 0.00 0.00 91 1011.2
20260505075220 69 199 4.0 0.0 0.00 0.00 0.00 91 1011.5
20260505074719 69 156 5.0 0.0 0.00 0.00 0.00 91 1011.2
20260505074221 69 158 7.0 0.0 0.00 0.00 0.00 91 1011.2
20260505073720 69 71 4.0 0.0 0.00 0.00 0.00 91 1011.5
20260505073220 69 99 8.0 0.0 0.00 0.00 0.00 91 1011.5
20260505072721 69 75 6.0 0.0 0.00 0.00 0.00 91 1011.9
20260505072221 69 101 6.0 0.0 0.00 0.00 0.00 91 1011.9
20260505071721 69 140 5.0 0.0 0.00 0.00 0.00 90 1011.9
20260505071221 70 153 5.0 0.0 0.00 0.00 0.00 90 1011.9
20260505070722 70 195 5.0 0.0 0.00 0.00 0.00 90 1012.2
20260505070220 70 107 8.0 0.0 0.00 0.00 0.00 90 1012.2
20260505065720 70 115 6.0 0.0 0.00 0.00 0.00 90 1011.9
20260505065221 70 116 4.0 0.0 0.00 0.00 0.00 90 1012.2
20260505064720 70 297 5.0 0.0 0.00 0.00 0.00 90 1012.2
20260505064219 70 138 5.0 0.0 0.00 0.00 0.00 89 1012.2
20260505063719 70 151 6.0 0.0 0.00 0.00 0.00 89 1012.2
20260505063220 70 174 6.0 0.0 0.00 0.00 0.00 89 1012.2
20260505062719 70 128 5.0 0.0 0.00 0.00 0.00 89 1012.2
20260505062223 70 21 6.0 0.0 0.00 0.00 0.00 89 1012.2
20260505061721 70 98 5.0 0.0 0.00 0.00 0.00 89 1012.2
20260505061219 70 203 6.0 0.0 0.00 0.00 0.00 89 1012.2
20260505060719 70 86 8.0 0.0 0.00 0.00 0.00 89 1012.2
20260505060217 70 105 7.0 0.0 0.00 0.00 0.00 88 1012.5
20260505055719 70 128 6.0 0.0 0.00 0.00 0.00 88 1012.5
20260505055217 71 56 7.0 0.0 0.00 0.00 0.00 88 1012.5
20260505054717 71 153 5.0 0.0 0.00 0.00 0.00 88 1012.5
20260505054217 71 74 5.0 0.0 0.00 0.00 0.00 88 1012.5
20260505053718 71 109 5.0 0.0 0.00 0.00 0.00 88 1012.5
20260505053217 71 115 5.0 0.0 0.00 0.00 0.00 88 1012.5
20260505052717 71 108 7.0 0.0 0.00 0.00 0.00 88 1012.5
20260505052216 71 63 7.0 0.0 0.00 0.00 0.00 88 1012.2
20260505051719 71 81 6.0 0.0 0.00 0.00 0.00 88 1012.5
20260505051219 71 144 6.0 0.0 0.00 0.00 0.00 87 1012.2
20260505050718 71 175 5.0 0.0 0.00 0.00 0.00 87 1012.5
20260505050217 71 120 5.0 0.0 0.00 0.00 0.00 87 1012.2
20260505041718 72 121 7.0 0.0 0.00 0.00 0.00 84 1012.5
20260505041218 72 142 5.0 0.0 0.00 0.00 0.00 84 1012.5
20260505040719 72 192 5.0 0.0 0.00 0.00 0.00 83 1012.5
20260505040214 72 72 5.0 0.0 0.00 0.00 0.00 83 1012.5